Location: Newark
(43.6583°N, 1.6617°E)
Time: 01:49:38
(UTC+00:00)

Tiros 1 - Pass Details

Date: 28 August 2019
Orbit: 630 x 664 km, 48.4° (Epoch: 17 October)

Event Time Altitude Azimuth Distance (km) Brightness Sun altitude
Rises 21:10:33 0° 224° (SW) 2,906 10.5 -25.1°
Enters shadow 21:11:37 - 222° (SW) 2,498 10.1 -25.2°
Reaches altitude 10° 21:12:56 10° 218° (SW) 2,000 - -25.4°
Maximum altitude 21:17:20 46° 145° (SE) 840 - -25.9°
Drops below altitude 10° 21:21:45 10° 73° (ENE) 2,010 - -26.5°
Sets 21:24:08 0° 67° (ENE) 2,922 - -26.8°
